Location: Observatoire
(46.1952°N, 5.3391°E)
Time: 10:58:10
(UTC+01:00)

Transit 2A - Visible Passes

Search period start: 19 February 2026 00:00
Search period end: 01 March 2026 00:00
Orbit: 590 x 955 km, 66.7° (Epoch: 19 February)

Date Brightness Start Highest point End Pass type
(mag) Time Alt. Az. Time Alt. Az. Time Alt. Az.
19 Feb 8.1 18:55:20 10° NNW 18:58:48 15° NNE 19:02:09 10° ENE visible
19 Feb 6.9 20:37:50 10° NNW 20:42:49 41° NNE 20:42:49 41° NNE visible
19 Feb 8.5 22:21:13 10° NW 22:23:10 20° NW 22:23:10 20° NW visible
20 Feb 7.0 20:01:34 10° NNW 20:07:01 33° NE 20:07:47 32° ENE visible
20 Feb 7.7 21:44:38 10° NW 21:48:08 34° NW 21:48:08 34° NW visible
21 Feb 7.4 19:25:20 10° NNW 19:30:21 26° NE 19:32:47 20° ENE visible
21 Feb 6.6 21:08:10 10° NW 21:13:09 61° NW 21:13:09 61° NW visible
22 Feb 7.7 18:49:06 10° NNW 18:53:35 21° NNE 18:57:49 10° ENE visible
22 Feb 6.0 20:31:47 10° NNW 20:37:49 73° NE 20:38:15 69° E visible
22 Feb 8.5 22:16:04 10° WNW 22:18:37 18° W 22:18:37 18° W visible
23 Feb 6.4 19:55:26 10° NNW 20:01:21 53° NE 20:03:25 35° ESE visible
23 Feb 7.7 21:39:07 10° NW 21:43:47 29° WSW 21:43:47 29° WSW visible
24 Feb 6.8 19:19:08 10° NNW 19:24:48 39° NE 19:28:41 17° ESE visible
24 Feb 7.1 21:02:25 10° NW 21:07:58 43° WSW 21:09:04 39° SW visible
25 Feb 7.2 18:42:53 10° NNW 18:48:10 30° NE 18:53:04 10° E visible
25 Feb 6.5 20:25:52 10° NW 20:31:45 63° WSW 20:34:27 30° S visible
26 Feb 6.1 19:49:25 10° NNW 19:55:26 89° WSW 19:59:59 15° SSE visible
26 Feb 8.6 21:34:25 10° WNW 21:37:31 15° WSW 21:40:24 10° SW visible
27 Feb 6.2 19:13:04 10° NNW 19:19:02 66° NE 19:24:25 10° SE visible
27 Feb 8.3 20:57:08 10° WNW 21:01:30 22° WSW 21:05:34 10° SSW visible
28 Feb 7.7 20:20:16 10° NW 20:25:25 33° WSW 20:30:07 10° S visible
